CW8198 Weather Reports


time (UTC)temp
C
wind
direction
speed
KPH
gust
KPH
rain 1hr
cm
rain 24hr
cm
rain mn
cm
humidity
%
barometer
mb
20260504130755 8 269 3.2 4.8 0.00 0.00 0.00 90 1002.7
20260504130254 8 309 3.2 4.8 0.00 0.00 0.00 90 1002.8
20260504120246 6 291 0.0 1.6 0.00 0.00 0.00 89 1002.2
20260504100214 6 111 0.0 1.6 0.00 0.00 0.00 88 1002.6
20260504081150 7 51 0.0 1.6 0.00 0.00 0.00 85 1003.9
20260504080644 7 34 0.0 1.6 0.00 0.00 0.00 85 1003.9
20260504080144 7 9 0.0 1.6 0.00 0.00 0.00 85 1004.0
20260504070127 8 334 0.0 3.2 0.00 0.00 0.00 82 1005.0
20260504060118 9 9 1.6 3.2 0.00 0.00 0.00 78 1005.8
20260504050606 11 146 1.6 1.6 0.00 0.00 0.00 74 1006.4
20260504050106 11 178 0.0 1.6 0.00 0.00 0.00 73 1006.5
20260504045608 11 51 0.0 1.6 0.00 0.00 0.00 72 1006.5
20260504045105 11 319 1.6 1.6 0.00 0.00 0.00 72 1006.4
20260504044606 11 265 0.0 1.6 0.00 0.00 0.00 72 1006.5
20260504043605 12 309 1.6 4.8 0.00 0.00 0.00 71 1006.6
20260504043105 12 129 1.6 3.2 0.00 0.00 0.00 71 1006.6
20260504042605 12 9 1.6 3.2 0.00 0.00 0.00 71 1006.7
20260504042104 12 119 0.0 3.2 0.00 0.00 0.00 71 1006.7
20260504041604 12 126 1.6 3.2 0.00 0.00 0.00 71 1006.7
20260504041103 12 119 1.6 3.2 0.00 0.00 0.00 70 1006.7
20260504040604 12 221 0.0 3.2 0.00 0.00 0.00 70 1006.9
20260504040104 12 282 0.0 1.6 0.00 0.00 0.00 69 1006.8
20260504035103 13 265 0.0 3.2 0.00 0.00 0.00 68 1007.2
20260504034058 13 149 0.0 1.6 0.00 0.00 0.00 68 1007.2
20260504033558 13 265 0.0 1.6 0.00 0.00 0.00 67 1007.4
20260504033057 13 291 0.0 1.6 0.00 0.00 0.00 66 1007.4
20260504032541 13 51 0.0 1.6 0.00 0.00 0.00 66 1007.4
20260504032041 13 9 0.0 3.2 0.00 0.00 0.00 66 1007.3
20260504031541 13 9 0.0 3.2 0.00 0.00 0.00 65 1007.5
20260504031041 13 309 0.0 3.2 0.00 0.00 0.00 65 1007.5
20260504030541 14 238 1.6 3.2 0.00 0.00 0.00 64 1007.4
20260504025540 14 221 1.6 3.2 0.00 0.00 0.00 63 1007.5
20260504025040 15 137 0.0 3.2 0.00 0.00 0.00 63 1007.6
20260504024539 15 93 0.0 4.8 0.00 0.00 0.00 62 1007.5
20260504024038 15 51 1.6 4.8 0.00 0.00 0.00 61 1007.5
20260504023538 15 108 1.6 3.2 0.00 0.00 0.00 62 1007.6
20260504023038 15 9 0.0 3.2 0.00 0.00 0.00 59 1007.6
20260504022538 16 238 1.6 3.2 0.00 0.00 0.00 56 1007.6
20260504022038 16 232 0.0 3.2 0.00 0.00 0.00 54 1007.5
20260504021538 16 137 0.0 3.2 0.00 0.00 0.00 53 1007.6
20260504020037 17 34 0.0 3.2 0.00 0.00 0.00 49 1007.7
20260504015537 17 105 1.6 3.2 0.00 0.00 0.00 48 1007.7
20260504015038 18 119 1.6 3.2 0.00 0.00 0.00 45 1007.7
20260504014036 18 309 0.0 3.2 0.00 0.00 0.00 45 1007.9
20260504013536 18 115 1.6 4.8 0.00 0.00 0.00 43 1007.7
20260504013036 19 129 3.2 4.8 0.00 0.00 0.00 42 1007.8
20260504012535 20 185 1.6 4.8 0.00 0.00 0.00 44 1007.7
20260504012035 20 137 0.0 1.6 0.00 0.00 0.00 40 1007.6
20260504011529 20 178 0.0 1.6 0.00 0.00 0.00 39 1007.7
20260504011030 20 205 0.0 1.6 0.00 0.00 0.00 41 1007.7
20260504010529 21 265 0.0 3.2 0.00 0.00 0.00 38 1007.7
20260504005529 21 205 1.6 3.2 0.00 0.00 0.00 37 1007.8
20260504004029 21 309 1.6 4.8 0.00 0.00 0.00 36 1007.9
20260504003528 21 265 1.6 6.4 0.00 0.00 0.00 36 1007.9
20260504003028 22 340 3.2 8.0 0.00 0.00 0.00 35 1007.9
20260504002528 22 325 1.6 8.0 0.00 0.00 0.00 35 1008.0
20260504002027 22 341 1.6 4.8 0.00 0.00 0.00 31 1008.0
20260504001528 23 9 3.2 8.0 0.00 0.00 0.00 32 1008.0
20260504001027 23 291 4.8 14.5 0.00 0.00 0.00 32 1008.1
20260504000528 23 282 1.6 14.5 0.00 0.00 0.00 35 1008.0
20260504000026 23 259 4.8 11.3 0.00 0.00 0.00 32 1008.1
20260503234525 24 245 3.2 12.9 0.00 0.00 0.00 32 1008.1
20260503234025 24 273 3.2 12.9 0.00 0.00 0.00 33 1008.1
20260503233524 25 291 4.8 16.1 0.00 0.00 0.00 31 1008.2
20260503233025 25 296 8.0 16.1 0.00 0.00 0.00 30 1008.2
20260503232026 25 325 3.2 11.3 0.00 0.00 0.00 32 1008.2
20260503231523 25 295 3.2 14.5 0.00 0.00 0.00 31 1008.2
20260503231023 25 342 4.8 14.5 0.00 0.00 0.00 32 1008.2
20260503230022 26 72 1.6 11.3 0.00 0.00 0.00 24 1008.3
20260503225522 27 282 3.2 12.9 0.00 0.00 0.00 32 1008.3
20260503225022 26 317 3.2 12.9 0.00 0.00 0.00 31 1008.3
20260503224522 26 295 3.2 12.9 0.00 0.00 0.00 30 1008.3
20260503224022 26 315 4.8 17.7 0.00 0.00 0.00 30 1008.3
20260503223021 27 247 4.8 11.3 0.00 0.00 0.00 29 1008.3
20260503222023 26 325 3.2 16.1 0.00 0.00 0.00 29 1008.4
20260503220520 25 312 4.8 20.9 0.00 0.00 0.00 31 1008.5
20260503220018 25 348 4.8 17.7 0.00 0.00 0.00 31 1008.5
20260503215519 25 259 3.2 11.3 0.00 0.00 0.00 35 1008.6
20260503215019 25 238 3.2 12.9 0.00 0.00 0.00 31 1008.6
20260503214018 25 325 4.8 16.1 0.00 0.00 0.00 33 1008.8
20260503213518 25 249 9.7 16.1 0.00 0.00 0.00 27 1008.8
20260503213018 25 272 3.2 14.5 0.00 0.00 0.00 30 1008.7
20260503212517 25 97 4.8 22.5 0.00 0.00 0.00 28 1008.9
20260503212019 26 28 11.3 22.5 0.00 0.00 0.00 30 1009.0
20260503211517 26 298 8.0 14.5 0.00 0.00 0.00 32 1009.1
20260503211017 26 300 4.8 14.5 0.00 0.00 0.00 32 1009.1
20260503210517 25 319 3.2 14.5 0.00 0.00 0.00 30 1009.3
20260503210017 25 338 4.8 14.5 0.00 0.00 0.00 37 1009.4
20260503205517 24 265 1.6 19.3 0.00 0.00 0.00 30 1009.5
20260503205017 24 309 4.8 19.3 0.00 0.00 0.00 34 1009.5
20260503204516 24 346 9.7 19.3 0.00 0.00 0.00 34 1009.6
20260503204016 25 26 3.2 14.5 0.00 0.00 0.00 29 1009.6
20260503203515 25 225 6.4 14.5 0.00 0.00 0.00 30 1009.6
20260503203016 25 282 3.2 9.7 0.00 0.00 0.00 33 1009.7
20260503202516 25 76 3.2 19.3 0.00 0.00 0.00 38 1009.8
20260503202017 25 265 4.8 19.3 0.00 0.00 0.00 36 1010.0
20260503201514 25 309 3.2 16.1 0.00 0.00 0.00 36 1009.9
20260503201014 25 51 3.2 22.5 0.00 0.00 0.00 39 1010.2
20260503200509 25 321 8.0 25.7 0.00 0.00 0.00 30 1010.2
20260503195009 23 286 4.8 20.9 0.00 0.00 0.00 37 1010.3
20260503194509 23 348 4.8 20.9 0.00 0.00 0.00 39 1010.4
20260503194008 23 51 9.7 20.9 0.00 0.00 0.00 40 1010.5
20260503193508 22 319 6.4 17.7 0.00 0.00 0.00 38 1010.4
20260503193008 23 344 6.4 22.5 0.00 0.00 0.00 35 1010.4
20260503192508 23 331 11.3 22.5 0.00 0.00 0.00 35 1010.5
20260503191509 24 17 12.9 25.7 0.00 0.00 0.00 35 1010.6
20260503191007 24 29 8.0 17.7 0.00 0.00 0.00 35 1010.7
20260503190507 24 19 4.8 16.1 0.00 0.00 0.00 40 1010.7
20260503190008 23 15 9.7 20.9 0.00 0.00 0.00 34 1010.7
20260503185506 23 265 6.4 20.9 0.00 0.00 0.00 41 1010.8
20260503184507 23 48 11.3 32.2 0.00 0.00 0.00 33 1011.1
20260503184006 23 341 11.3 32.2 0.00 0.00 0.00 36 1011.1
20260503183506 23 340 6.4 22.5 0.00 0.00 0.00 38 1011.1
20260503183005 23 296 9.7 22.5 0.00 0.00 0.00 37 1011.1
20260503182506 23 317 8.0 19.3 0.00 0.00 0.00 36 1011.0
20260503182006 23 312 8.0 24.1 0.00 0.00 0.00 36 1011.2
20260503181507 22 342 12.9 24.1 0.00 0.00 0.00 37 1011.1
20260503181005 22 342 8.0 20.9 0.00 0.00 0.00 36 1011.2
20260503180504 23 336 8.0 22.5 0.00 0.00 0.00 37 1011.3
20260503180005 23 17 8.0 22.5 0.00 0.00 0.00 36 1011.3
20260503175504 22 342 6.4 19.3 0.00 0.00 0.00 41 1011.4
20260503175004 22 329 8.0 20.9 0.00 0.00 0.00 41 1011.5
20260503174503 22 339 9.7 20.9 0.00 0.00 0.00 36 1011.6
20260503174002 22 9 9.7 22.5 0.00 0.00 0.00 37 1011.6
20260503173502 22 9 9.7 22.5 0.00 0.00 0.00 39 1011.7
20260503173002 22 293 11.3 20.9 0.00 0.00 0.00 34 1011.7
20260503172502 22 265 8.0 27.4 0.00 0.00 0.00 38 1011.7
20260503172002 22 338 6.4 27.4 0.00 0.00 0.00 35 1011.7
20260503171002 22 317 14.5 25.7 0.00 0.00 0.00 37 1011.8
20260503150954 18 344 6.4 12.9 0.00 0.00 0.00 52 1011.7
20260503150454 17 282 4.8 16.1 0.00 0.00 0.00 50 1011.6